Un día en 60 segundosParameter Max Max Time Min Min Time Average Wind Direction 360 8:39 5 8:32 292 Wind Speed 31 18:04 0 0:00 5 Wind Gust 32 18:04 0 0:00 14 In Humidity 61 0:18 39 16:28 50 Humidity 90 5:33 35 17:15 67 In Temp 23.2 19:20 20.7 7:56 22.0 Out Temp 23.8 17:31 13.1 8:03 17.6 Raw Barometer 1015.07 12:12 1012.40 17:45 1013.70 Total Rain 248.00 0:00 248.00 0:00 248.00
4/5/26
Time Wind Dir Wind Spd Wind Gust Hum In Humidity Temp In Temp Raw Barom Tot Rain
° km/hr km/hr % % °C °C mb mm
0:00 207 0 3 59 81 22.0 15.1 1014.06 248.00
0:20 207 0 0 60 82 21.9 14.8 1014.23 248.00
0:40 209 0 0 60 82 21.8 14.7 1014.16 248.00
1:00 196 0 5 60 82 21.8 14.7 1013.96 248.00
1:20 212 0 5 60 83 21.8 14.8 1013.99 248.00
1:40 215 3 5 60 84 21.7 14.9 1013.89 248.00
2:00 217 0 5 60 85 21.7 14.8 1013.62 248.00
2:20 217 0 3 60 85 21.7 14.7 1013.38 248.00
2:40 217 0 0 59 85 21.7 14.6 1013.31 248.00
3:00 217 0 0 59 85 21.6 14.3 1013.25 248.00
3:20 217 0 0 59 86 21.5 13.8 1013.11 248.00
3:40 304 2 3 59 87 21.4 13.7 1012.98 248.00
4:00 314 2 8 59 88 21.4 13.9 1012.98 248.00
4:20 290 2 6 59 89 21.3 14.1 1012.84 248.00
4:40 309 0 0 59 88 21.3 14.0 1013.01 248.00
5:00 309 0 0 58 88 21.2 13.6 1013.25 248.00
5:20 309 0 0 58 89 21.2 13.5 1013.21 248.00
5:40 309 0 0 59 90 21.2 13.8 1013.04 248.00
6:00 309 0 3 58 89 21.1 13.7 1013.08 248.00
6:20 309 0 0 58 89 21.1 13.6 1013.18 248.00
6:40 296 3 6 58 89 21.0 13.5 1013.21 248.00
7:00 300 0 6 58 88 20.9 13.4 1013.35 248.00
7:20 289 5 6 58 87 20.9 13.4 1013.48 248.00
7:40 288 3 11 58 87 20.8 13.2 1013.69 248.00
8:00 284 3 11 58 87 20.7 13.1 1014.06 248.00
8:20 310 2 13 58 87 20.7 13.4 1014.26 248.00
8:40 323 3 13 57 85 20.8 14.1 1014.36 248.00
9:00 360 3 14 56 83 20.9 14.5 1014.46 248.00
9:20 348 3 13 56 80 21.0 15.3 1014.67 248.00
9:40 5 5 8 55 77 21.2 15.9 1014.60 248.00
10:00 14 6 10 53 71 21.6 17.1 1014.77 248.00
10:20 345 0 8 52 69 21.7 17.8 1014.77 248.00
10:40 300 2 13 52 68 21.8 18.3 1014.83 248.00
11:00 296 3 13 51 63 21.9 18.4 1014.80 248.00
11:20 309 3 14 49 54 22.0 19.2 1014.87 248.00
11:40 266 3 18 46 54 22.2 19.3 1014.90 248.00
12:00 219 5 18 44 52 22.1 19.7 1014.87 248.00
12:20 292 6 16 42 50 22.0 19.4 1015.00 248.00
12:40 272 11 19 43 49 22.1 20.1 1015.00 248.00
13:00 288 5 24 43 49 22.2 19.9 1014.73 248.00
13:20 234 2 19 42 47 22.3 20.2 1014.60 248.00
13:40 300 13 21 41 43 22.4 20.6 1014.40 248.00
14:00 244 5 21 42 42 22.4 20.8 1014.16 248.00
14:20 296 16 21 41 43 22.4 21.1 1013.99 248.00
14:40 221 10 18 42 42 22.5 21.4 1013.85 248.00
15:00 275 13 23 41 42 22.5 21.6 1013.72 248.00
15:20 296 11 23 41 41 22.6 22.3 1013.69 248.00
15:40 337 5 23 41 39 22.6 22.7 1013.55 248.00
16:00 5 10 23 41 40 22.7 22.7 1013.45 248.00
16:20 303 16 21 42 38 22.7 22.7 1013.35 248.00
16:40 286 6 19 40 37 22.7 23.2 1013.14 248.00
17:00 338 6 21 41 36 22.7 23.4 1012.98 248.00
17:20 302 8 23 41 36 22.8 23.6 1012.77 248.00
17:40 207 0 19 41 44 22.8 23.7 1012.74 248.00
18:00 244 8 23 42 49 22.9 23.4 1012.47 248.00
18:20 248 13 27 44 52 23.0 22.4 1012.50 248.00
18:40 248 8 29 45 54 23.1 21.8 1012.67 248.00
19:00 275 18 29 45 55 23.2 21.5 1012.81 248.00
19:20 304 2 27 45 56 23.2 21.2 1012.77 248.00
19:40 225 14 24 45 56 23.2 21.0 1012.74 248.00
20:00 289 8 27 45 57 23.0 20.4 1012.87 248.00
20:20 294 11 23 44 56 22.8 19.9 1012.91 248.00
20:40 245 13 26 44 57 22.5 19.4 1013.04 248.00
21:00 293 13 26 45 59 22.3 18.9 1013.21 248.00
21:20 257 6 24 45 60 22.4 18.4 1013.28 248.00
21:40 259 14 14 46 62 22.4 18.1 1013.41 248.00
22:00 247 3 16 46 64 22.4 17.5 1013.62 248.00
22:20 254 3 13 47 66 22.3 17.1 1013.72 248.00
22:40 290 11 13 47 69 22.3 16.7 1013.89 248.00
23:00 296 3 13 48 71 22.3 16.5 1014.12 248.00
23:20 277 2 10 48 72 22.2 16.1 1014.26 248.00
23:40 285 0 0 49 73 22.2 15.8 1014.33 248.00